This is the latest recevied weather packets stored in our database for station/object VE3EP-1. If no packets are shown the sender has not sent any weather packets the latest 10 day(s).
| Time | Temp. | Humidity | Pressure | Rain* | Wind** | Luminosity | Snow |
|---|---|---|---|---|---|---|---|
| 1788533337 | 21.67° C | 74% | 1016.7 hPa | 0 mm | - | - | - |
| 1788528538 | 19.44° C | 81% | 1017.3 hPa | 0 mm | - | - | - |
| 1788526138 | 18.33° C | 87% | 1017.1 hPa | 0 mm | - | - | - |
| 1788524938 | 17.78° C | 88% | 1016.9 hPa | 0 mm | - | - | - |
| 1788523138 | 17.22° C | 90% | 1017 hPa | 0 mm | - | - | - |
| 1788521938 | 16.67° C | 90% | 1017 hPa | 0 mm | - | - | - |
| 1788521338 | 16.67° C | 90% | 1016.9 hPa | 0 mm | - | - | - |
| 1788516537 | 16.67° C | 90% | 1016.4 hPa | 0 mm | - | - | - |
| 1788515338 | 17.22° C | 90% | 1016.2 hPa | 0 mm | - | - | - |
| 1788513537 | 16.67° C | 93% | 1016.1 hPa | 0 mm | - | - | - |
| 1788512339 | 16.11° C | 93% | 1015.8 hPa | 0 mm | - | - | - |
| 1788511138 | 16.67° C | 92% | 1015.6 hPa | 0 mm | - | - | - |
| 1788509337 | 16.67° C | 91% | 1015.4 hPa | 0 mm | - | - | - |
| 1788508138 | 16.67° C | 90% | 1015.5 hPa | 0 mm | - | - | - |
| 1788504537 | 17.22° C | 87% | 1015.4 hPa | 0 mm | - | - | - |
| 1788502739 | 17.78° C | 85% | 1015.5 hPa | 0 mm | - | - | - |
| 1788502137 | 17.78° C | 84% | 1015.5 hPa | 0 mm | - | - | - |
| 1788500937 | 17.78° C | 84% | 1015.5 hPa | 0 mm | - | - | - |
| 1788500338 | 18.33° C | 83% | 1015.4 hPa | 0 mm | - | - | - |
| 1788499737 | 17.78° C | 83% | 1015.4 hPa | 0 mm | - | - | - |
| 1788499138 | 17.78° C | 84% | 1015.6 hPa | 0 mm | - | - | - |
| 1788497938 | 17.78° C | 84% | 1015.8 hPa | 0 mm | - | - | - |
| 1788496737 | 18.33° C | 84% | 1015.4 hPa | 0 mm | - | - | - |
| 1788495537 | 18.33° C | 79% | 1015.3 hPa | 0 mm | - | - | - |
| 1788494937 | 18.33° C | 82% | 1015.3 hPa | 0 mm | - | - | - |
* Rain latest hour (hover to see other rain measurements)
** Current wind speed in m/s (hover to see current wind gust speed)